Tracking 20719 objects as of 24-May-2020
HD Live streaming from Space Station
objects crossing your sky now

STTW-3

Track STTW-3 now!
STTW-3 is classified as:


NORAD ID: 19710
Int'l Code: 1988-111A
Perigee: 35,744.1 km
Apogee: 35,802.7 km
Inclination: 15.1 °
Period: 1,435.1 minutes
Semi major axis: 42144 km
RCS: 6.3096 m2 (large)
Launch date: December 22, 1988
Source: People's Republic of China (PRC)
Launch site: Xichang Space Center, China (XSC)
aabbcc
Your satellite tracking list
Your tracking list is empty




NASA's NSSDC Master Catalog

Two Line Element Set (TLE):
1 19710U 88111A   20144.74027736 -.00000259 +00000-0 +00000-0 0  9991
2 19710 015.0743 003.5397 0006947 068.1055 166.9695 01.00344304108637
Source of the keplerian elements: AFSPC